When you browse on this site, cookies collect data to enhance your experience and personalize the content and advertising you see.
Visit our Privacy Policy to learn more. By continuing to use the site, you agree to this use of cookies and data.
  • In United Kingdom
  • List of Countries
  • For 7 days
  • Water Temperature
  • Weather Map
  • Weather Widgets
  • user-avatar
    Login

    Hourly Weather Chernomorec

    Today, 26 February, Wednesday

    Time Temperature Precipitation Wind Pressure Humidity
    00:00 +9°C° 0 mm 3 mps 756 mmHg 64%
    01:00 +7°C° 0 mm 4 mps 756 mmHg 66%
    02:00 +7°C° 0 mm 4 mps 756 mmHg 68%
    03:00 +7°C° 0 mm 4 mps 755 mmHg 68%
    04:00 +8°C° 0 mm 5 mps 755 mmHg 68%
    05:00 +8°C° 0 mm 5 mps 754 mmHg 68%
    06:00 +8°C° 0 mm 5 mps 754 mmHg 69%
    07:00 +8°C° 0 mm 4 mps 754 mmHg 71%
    08:00 +8°C° 0 mm 4 mps 754 mmHg 73%
    09:00 +11°C° 0 mm 4 mps 753 mmHg 70%
    10:00 +13°C° 0 mm 5 mps 753 mmHg 67%
    11:00 +15°C° 0 mm 6 mps 753 mmHg 64%
    12:00 +16°C° 0 mm 6 mps 753 mmHg 63%
    13:00 +17°C° 0 mm 6 mps 752 mmHg 62%
    14:00 +17°C° 0 mm 7 mps 752 mmHg 61%
    15:00 +17°C° 0 mm 7 mps 751 mmHg 64%
    16:00 +16°C° 0 mm 7 mps 751 mmHg 66%
    17:00 +16°C° 0 mm 7 mps 750 mmHg 69%
    18:00 +15°C° 0 mm 7 mps 750 mmHg 70%
    19:00 +14°C° 0 mm 7 mps 750 mmHg 72%
    20:00 +13°C° 0 mm 8 mps 750 mmHg 73%
    21:00 +13°C° 0 mm 8 mps 750 mmHg 74%
    22:00 +13°C° 0 mm 9 mps 750 mmHg 75%
    23:00 +12°C° 0 mm 9 mps 750 mmHg 76%

    Tomorrow, 27 February, Thursday

    Time Temperature Precipitation Wind Pressure Humidity
    00:00 +12°C° 0 mm 9 mps 750 mmHg 77%
    01:00 +12°C° 0 mm 9 mps 750 mmHg 78%
    02:00 +12°C° 0 mm 8 mps 750 mmHg 79%
    03:00 +12°C° 0 mm 8 mps 750 mmHg 77%
    04:00 +12°C° 0 mm 8 mps 750 mmHg 76%
    05:00 +12°C° 0 mm 8 mps 750 mmHg 75%
    06:00 +12°C° 0 mm 8 mps 750 mmHg 75%
    07:00 +12°C° 0 mm 8 mps 750 mmHg 75%
    08:00 +12°C° 0 mm 7 mps 750 mmHg 74%
    09:00 +13°C° 0 mm 8 mps 750 mmHg 67%
    10:00 +15°C° 0 mm 9 mps 750 mmHg 60%
    11:00 +17°C° 0 mm 10 mps 750 mmHg 52%
    12:00 +16°C° 0.1 mm 9 mps 750 mmHg 53%
    13:00 +16°C° 0.1 mm 9 mps 750 mmHg 53%
    14:00 +16°C° 0.1 mm 9 mps 750 mmHg 53%
    15:00 +14°C° 0 mm 7 mps 750 mmHg 54%
    16:00 +13°C° 0 mm 5 mps 751 mmHg 55%
    17:00 +12°C° 0 mm 3 mps 751 mmHg 57%
    18:00 +11°C° 0.1 mm 4 mps 752 mmHg 57%
    19:00 +8°C° 0.1 mm 5 mps 752 mmHg 58%
    20:00 +7°C° 0.1 mm 6 mps 753 mmHg 58%
    21:00 +5°C° 0 mm 6 mps 754 mmHg 61%
    22:00 +5°C° 0 mm 7 mps 755 mmHg 64%
    23:00 +4°C° 0 mm 8 mps 755 mmHg 67%

    Day after tomorrow, 28 February, Friday

    Time Temperature Precipitation Wind Pressure Humidity
    00:00 +4°C° 0 mm 6 mps 756 mmHg 68%
    01:00 +3°C° 0 mm 5 mps 757 mmHg 69%
    02:00 +4°C° 0 mm 4 mps 758 mmHg 70%
    03:00 +4°C° 0 mm 4 mps 758 mmHg 70%
    04:00 +3°C° 0 mm 4 mps 758 mmHg 71%
    05:00 +3°C° 0 mm 4 mps 758 mmHg 71%
    06:00 +3°C° 0 mm 4 mps 758 mmHg 70%
    07:00 +3°C° 0 mm 3 mps 759 mmHg 69%
    08:00 +3°C° 0 mm 3 mps 759 mmHg 68%
    09:00 +5°C° 0 mm 3 mps 759 mmHg 59%
    10:00 +8°C° 0 mm 3 mps 759 mmHg 51%
    11:00 +10°C° 0 mm 3 mps 759 mmHg 43%
    12:00 +10°C° 0 mm 4 mps 758 mmHg 43%
    13:00 +10°C° 0 mm 5 mps 758 mmHg 43%
    14:00 +10°C° 0 mm 5 mps 757 mmHg 43%
    15:00 +10°C° 0 mm 5 mps 757 mmHg 46%
    16:00 +11°C° 0 mm 4 mps 757 mmHg 49%
    17:00 +11°C° 0 mm 3 mps 756 mmHg 53%
    18:00 +10°C° 0 mm 4 mps 757 mmHg 57%
    19:00 +8°C° 0 mm 4 mps 758 mmHg 62%
    20:00 +7°C° 0 mm 5 mps 758 mmHg 66%
    21:00 +7°C° 0 mm 5 mps 759 mmHg 68%
    22:00 +6°C° 0 mm 4 mps 759 mmHg 70%
    23:00 +6°C° 0 mm 4 mps 759 mmHg 72%

    29 February, Saturday

    Time Temperature Precipitation Wind Pressure Humidity
    00:00 +5°C° 0 mm 5 mps 759 mmHg 67%
    01:00 +4°C° 0 mm 6 mps 760 mmHg 63%
    02:00 +3°C° 0 mm 7 mps 760 mmHg 58%
    03:00 +3°C° 0 mm 7 mps 760 mmHg 59%
    04:00 +3°C° 0 mm 7 mps 760 mmHg 59%
    05:00 +1°C° 0 mm 8 mps 761 mmHg 59%
    06:00 +2°C° 0 mm 7 mps 761 mmHg 60%
    07:00 +3°C° 0 mm 7 mps 762 mmHg 60%
    08:00 +3°C° 0 mm 6 mps 762 mmHg 60%
    09:00 +4°C° 0 mm 6 mps 763 mmHg 55%
    10:00 +7°C° 0 mm 6 mps 763 mmHg 49%
    11:00 +8°C° 0 mm 6 mps 763 mmHg 44%
    12:00 +9°C° 0 mm 5 mps 763 mmHg 41%
    13:00 +10°C° 0 mm 4 mps 763 mmHg 37%
    14:00 +11°C° 0 mm 4 mps 763 mmHg 34%
    15:00 +11°C° 0 mm 3 mps 762 mmHg 36%
    16:00 +12°C° 0 mm 2 mps 762 mmHg 38%
    17:00 +12°C° 0 mm 2 mps 762 mmHg 40%
    18:00 +9°C° 0 mm 2 mps 763 mmHg 43%
    19:00 +8°C° 0 mm 3 mps 763 mmHg 45%
    20:00 +7°C° 0 mm 3 mps 763 mmHg 48%
    21:00 +5°C° 0 mm 3 mps 763 mmHg 53%
    22:00 +5°C° 0 mm 3 mps 763 mmHg 57%
    23:00 +5°C° 0 mm 3 mps 763 mmHg 62%

    1 March, Sunday

    Time Temperature Precipitation Wind Pressure Humidity
    00:00 +5°C° 0 mm 3 mps 763 mmHg 63%
    01:00 +5°C° 0 mm 3 mps 763 mmHg 64%
    02:00 +5°C° 0 mm 3 mps 762 mmHg 65%
    03:00 +4°C° 0 mm 3 mps 762 mmHg 65%
    04:00 +5°C° 0 mm 2 mps 762 mmHg 64%
    05:00 +5°C° 0 mm 2 mps 761 mmHg 64%
    06:00 +6°C° 0 mm 2 mps 761 mmHg 64%
    07:00 +6°C° 0 mm 2 mps 761 mmHg 65%
    08:00 +7°C° 0 mm 3 mps 761 mmHg 65%
    09:00 +9°C° 0 mm 3 mps 761 mmHg 63%
    10:00 +11°C° 0 mm 4 mps 761 mmHg 60%
    11:00 +12°C° 0 mm 5 mps 761 mmHg 57%
    12:00 +13°C° 0 mm 6 mps 760 mmHg 58%
    13:00 +14°C° 0 mm 6 mps 760 mmHg 59%
    14:00 +15°C° 0 mm 6 mps 759 mmHg 60%
    15:00 +15°C° 0 mm 6 mps 759 mmHg 63%
    16:00 +14°C° 0 mm 6 mps 758 mmHg 66%
    17:00 +14°C° 0 mm 5 mps 758 mmHg 70%
    18:00 +13°C° 0 mm 5 mps 758 mmHg 75%
    19:00 +12°C° 0 mm 5 mps 758 mmHg 79%
    20:00 +11°C° 0 mm 4 mps 758 mmHg 84%
    21:00 +11°C° 0 mm 4 mps 758 mmHg 84%
    22:00 +11°C° 0 mm 4 mps 758 mmHg 84%
    23:00 +10°C° 0 mm 5 mps 758 mmHg 84%

    2 March, Monday

    Time Temperature Precipitation Wind Pressure Humidity
    00:00 +10°C° 0 mm 5 mps 757 mmHg 84%
    01:00 +10°C° 0 mm 5 mps 757 mmHg 84%
    02:00 +10°C° 0 mm 5 mps 757 mmHg 84%
    03:00 +10°C° 0 mm 5 mps 756 mmHg 85%
    04:00 +11°C° 0 mm 4 mps 756 mmHg 85%
    05:00 +11°C° 0 mm 4 mps 756 mmHg 86%
    06:00 +11°C° 0 mm 4 mps 756 mmHg 85%
    07:00 +11°C° 0 mm 4 mps 756 mmHg 85%
    08:00 +12°C° 0 mm 3 mps 756 mmHg 84%
    09:00 +13°C° 0 mm 3 mps 756 mmHg 79%
    10:00 +14°C° 0 mm 3 mps 756 mmHg 74%
    11:00 +17°C° 0 mm 3 mps 757 mmHg 68%
    12:00 +18°C° 0 mm 3 mps 756 mmHg 65%
    13:00 +18°C° 0 mm 3 mps 756 mmHg 62%
    14:00 +19°C° 0 mm 3 mps 755 mmHg 59%
    15:00 +18°C° 0.4 mm 3 mps 755 mmHg 61%
    16:00 +18°C° 0.4 mm 3 mps 755 mmHg 63%
    17:00 +17°C° 0.4 mm 3 mps 755 mmHg 65%
    18:00 +16°C° 0 mm 3 mps 756 mmHg 70%
    19:00 +14°C° 0 mm 3 mps 756 mmHg 74%
    20:00 +13°C° 0 mm 4 mps 756 mmHg 79%
    21:00 +12°C° 0 mm 3 mps 756 mmHg 81%
    22:00 +12°C° 0 mm 3 mps 757 mmHg 83%
    23:00 +11°C° 0 mm 3 mps 757 mmHg 84%
    Show more